map of NUQ home
Great Circle Mapper logo
NUQ - Airport
Location
City:  Mountain View, California, United States
Name:Moffett Federal Airfield
ICAO / IATA:KNUQ / NUQ
FAA:NUQ

Details
Type:Airport (Airfield)
Use:Private
Latitude:3724'58"N (37.416139)
Longitude:12202'57"W (-122.049138)
Datum:WGS 1984
Elevation:36 ft (11 m)
Runways:2
Longest:9197 × 200 ft (2803 × 61 m), paved

Time
Time Zone:UTC-8 (DST-7)
Local Time:

Weather
METAR:KNUQ 220356Z 31004KT 10SM CLR 16/09 A3004 RMK AO2 SLP176 T01610094

Related Locations
Nearby:
Farthest:FTU: 11364 mi / 18289 km
Tolagnaro [Maurillac (Fort Dauphin)], MG

Find:

   beyond  
but within

Other Information
Maps:
NOTAMs:
Links:
Sources:

  
flag of United States
flag of California
  

Airport Diagram

Airport diagram for NUQ

Airport diagram PDF

Sectional Chart

Flight Planning
at skyvector.com

Satellite Image

Google Maps Satellite View

 

Copyright © 2004-2014 Karl L. Swartz. All rights reserved.
The Great Circle Mapper name and logo are trademarks of the Great Circle Mapper.
All other trademarks mentioned herein belong to their respective owners.
Please see credits for attibutions and further copyright information.

  Follow gcmap on Facebook Follow gcmap on Twitter

hCard Microformat

Geo Microformat